This is the latest recevied weather packets stored in our database for station/object WC4PEM-10. If no packets are shown the sender has not sent any weather packets the latest 1 day(s).
| Time | Temp. | Humidity | Pressure | Rain* | Wind** | Luminosity | Snow |
|---|---|---|---|---|---|---|---|
| 1777981589 | 17.22° C | 97% | 1015.3 hPa | 0 mm | 1.34 m/s, 111° | - | - |
| 1777981359 | 17.22° C | 97% | 1015.1 hPa | 0 mm | 1.34 m/s, 93° | - | - |
| 1777981289 | 17.22° C | 97% | 1015.1 hPa | 0 mm | 1.34 m/s, 93° | - | - |
| 1777980989 | 17.22° C | 97% | 1015 hPa | 0 mm | 1.34 m/s, 51° | - | - |
| 1777980987 | 16.67° C | 97% | 1015 hPa | 0 mm | 1.34 m/s, 68° | - | - |
| 1777980854 | 16.67° C | 97% | 1015 hPa | 0 mm | 1.34 m/s, 68° | - | - |
| 1777980708 | 16.67° C | 97% | 1014.8 hPa | 0 mm | 0.89 m/s, 68° | - | - |
| 1777980689 | 16.67° C | 97% | 1015 hPa | 0 mm | 1.34 m/s, 68° | - | - |
| 1777980389 | 16.67° C | 97% | 1014.8 hPa | 0 mm | 0.89 m/s, 68° | - | - |
| 1777980089 | 16.67° C | 97% | 1014.8 hPa | 0 mm | 0.89 m/s, 51° | - | - |
| 1777979789 | 16.67° C | 97% | 1014.9 hPa | 0 mm | 0.45 m/s, 51° | - | - |
| 1777979761 | 16.67° C | 96% | 1014.7 hPa | 0 mm | 0.45 m/s, 51° | - | - |
| 1777979492 | 16.67° C | 96% | 1014.7 hPa | 0 mm | 0.45 m/s, 26° | - | - |
| 1777979489 | 16.67° C | 96% | 1014.7 hPa | 0 mm | 0.45 m/s, 51° | - | - |
| 1777979189 | 16.67° C | 96% | 1014.7 hPa | 0 mm | 0.45 m/s, 26° | - | - |
| 1777978889 | 16.67° C | 96% | 1014.7 hPa | 0 mm | 0.89 m/s, 51° | - | - |
| 1777978822 | 16.67° C | 96% | 1014.7 hPa | 0 mm | 0.89 m/s, 67° | - | - |
| 1777978589 | 16.67° C | 96% | 1014.7 hPa | 0 mm | 0.89 m/s, 67° | - | - |
| 1777978289 | 16.67° C | 96% | 1014.5 hPa | 0 mm | 0.45 m/s, 111° | - | - |
| 1777977989 | 17.22° C | 97% | 1014.6 hPa | 0 mm | 0.45 m/s, 126° | - | - |
| 1777977909 | 16.67° C | 96% | 1014.6 hPa | 0 mm | 0.45 m/s, 51° | - | - |
| 1777977701 | 17.22° C | 97% | 1014.5 hPa | 0 mm | 0.45 m/s, 76° | - | - |
| 1777977689 | 16.67° C | 96% | 1014.6 hPa | 0 mm | 0.45 m/s, 51° | - | - |
| 1777977389 | 17.22° C | 97% | 1014.5 hPa | 0 mm | 0.45 m/s, 76° | - | - |
| 1777977114 | 17.22° C | 96% | 1014.4 hPa | 0 mm | 0.89 m/s, 93° | - | - |
* Rain latest hour (hover to see other rain measurements)
** Current wind speed in m/s (hover to see current wind gust speed)